******** Week 144 almanac for PRN-1 ******** ID: 1 Health: 0 Eccentricity: 0.01125097275 Time of Applicability(s): 319488 Orbital Inclination(rad): 0.986435933 Rate of Right Ascen(r/s): -7.714607058e-09 SQRT(A) (m 1/2): 5153.629883 Right Ascen at Week(rad): -1.285575145 Argument of Perigee(rad): 0.8824917324 Mean Anom(rad): 2.281031305 Af0(s): 0.0003625173462 Af1(s/s): -1.091394e-11 week: 144 ******** Week 144 almanac for PRN-2 ******** ID: 2 Health: 0 Eccentricity: 0.02067327499 Time of Applicability(s): 319488 Orbital Inclination(rad): 0.9647744465 Rate of Right Ascen(r/s): -7.897471818e-09 SQRT(A) (m 1/2): 5153.626465 Right Ascen at Week(rad): -1.374174145 Argument of Perigee(rad): -1.458668549 Mean Anom(rad): 2.445025686 Af0(s): -0.0005124985352 Af1(s/s): 0 week: 144 ******** Week 144 almanac for PRN-3 ******** ID: 3 Health: 0 Eccentricity: 0.003863334656 Time of Applicability(s): 319488 Orbital Inclination(rad): 0.9724922874 Rate of Right Ascen(r/s): -7.611745631e-09 SQRT(A) (m 1/2): 5153.654785 Right Ascen at Week(rad): -0.2501688225 Argument of Perigee(rad): 0.9778827921 Mean Anom(rad): 1.112610572 Af0(s): -5.9540271e-05 Af1(s/s): -1.455192e-11 week: 144 ******** Week 144 almanac for PRN-4 ******** ID: 4 Health: 0 Eccentricity: 0.00164604187 Time of Applicability(s): 319488 Orbital Inclination(rad): 0.9609215182 Rate of Right Ascen(r/s): -7.874613723e-09 SQRT(A) (m 1/2): 5153.603027 Right Ascen at Week(rad): 0.8306539675 Argument of Perigee(rad): -3.105752332 Mean Anom(rad): -2.179705058 Af0(s): -0.0001545032349 Af1(s/s): 0 week: 144 ******** Week 144 almanac for PRN-5 ******** ID: 5 Health: 0 Eccentricity: 0.005898952484 Time of Applicability(s): 319488 Orbital Inclination(rad): 0.9594774191 Rate of Right Ascen(r/s): -7.737465153e-09 SQRT(A) (m 1/2): 5153.599121 Right Ascen at Week(rad): -0.2901017579 Argument of Perigee(rad): 1.013372951 Mean Anom(rad): -1.356768931 Af0(s): -5.351087646e-05 Af1(s/s): 0 week: 144 ******** Week 144 almanac for PRN-6 ******** ID: 6 Health: 0 Eccentricity: 0.002618789673 Time of Applicability(s): 319488 Orbital Inclination(rad): 0.9858187454 Rate of Right Ascen(r/s): -7.691748963e-09 SQRT(A) (m 1/2): 5153.60791 Right Ascen at Week(rad): -1.29384426 Argument of Perigee(rad): -1.002636583 Mean Anom(rad): 2.65162848 Af0(s): 0.000133400354 Af1(s/s): 1.091394e-11 week: 144 ******** Week 144 almanac for PRN-7 ******** ID: 7 Health: 0 Eccentricity: 0.01542568207 Time of Applicability(s): 319488 Orbital Inclination(rad): 0.950627069 Rate of Right Ascen(r/s): -7.851755628e-09 SQRT(A) (m 1/2): 5153.648926 Right Ascen at Week(rad): 1.850224635 Argument of Perigee(rad): -2.296549378 Mean Anom(rad): 1.620453712 Af0(s): 0.000238161084 Af1(s/s): 3.637979e-12 week: 144 ******** Week 144 almanac for PRN-8 ******** ID: 8 Health: 0 Eccentricity: 0.00711107254 Time of Applicability(s): 319488 Orbital Inclination(rad): 0.9651879023 Rate of Right Ascen(r/s): -8.091765626e-09 SQRT(A) (m 1/2): 5153.654785 Right Ascen at Week(rad): -2.365098021 Argument of Perigee(rad): 0.07790532656 Mean Anom(rad): -1.700628177 Af0(s): -4.069841309e-05 Af1(s/s): 0 week: 144 ******** Week 144 almanac for PRN-9 ******** ID: 9 Health: 0 Eccentricity: 0.002336502075 Time of Applicability(s): 319488 Orbital Inclination(rad): 0.9539407072 Rate of Right Ascen(r/s): -7.954617056e-09 SQRT(A) (m 1/2): 5153.57959 Right Ascen at Week(rad): 0.7779660717 Argument of Perigee(rad): 1.85880946 Mean Anom(rad): -1.373082083 Af0(s): -0.000283381543 Af1(s/s): 0 week: 144 ******** Week 144 almanac for PRN-10 ******** ID: 10 Health: 0 Eccentricity: 0.00742483139 Time of Applicability(s): 319488 Orbital Inclination(rad): 0.9723245082 Rate of Right Ascen(r/s): -7.623174678e-09 SQRT(A) (m 1/2): 5153.633301 Right Ascen at Week(rad): -0.252965641 Argument of Perigee(rad): -2.538656562 Mean Anom(rad): 0.2755102151 Af0(s): -0.0002306243408 Af1(s/s): -1.091394e-11 week: 144 ******** Week 144 almanac for PRN-11 ******** ID: 11 Health: 255 Eccentricity: 0.0003051757812 Time of Applicability(s): 319488 Orbital Inclination(rad): 0.9615566821 Rate of Right Ascen(r/s): -7.920329913e-09 SQRT(A) (m 1/2): 5153.711426 Right Ascen at Week(rad): -1.240998323 Argument of Perigee(rad): 2.82954516 Mean Anom(rad): -1.819985814 Af0(s): -2.939329834e-05 Af1(s/s): -3.637979e-11 week: 144 ******** Week 144 almanac for PRN-12 ******** ID: 12 Health: 0 Eccentricity: 0.00856590271 Time of Applicability(s): 319488 Orbital Inclination(rad): 0.9710661646 Rate of Right Ascen(r/s): -7.714607058e-09 SQRT(A) (m 1/2): 5153.578613 Right Ascen at Week(rad): 2.962522494 Argument of Perigee(rad): 1.237175729 Mean Anom(rad): 0.9539128443 Af0(s): -0.0001220952393 Af1(s/s): -7.275958e-12 week: 144 ******** Week 144 almanac for PRN-13 ******** ID: 13 Health: 0 Eccentricity: 0.005787849426 Time of Applicability(s): 319488 Orbital Inclination(rad): 0.9683277692 Rate of Right Ascen(r/s): -7.806039438e-09 SQRT(A) (m 1/2): 5153.617676 Right Ascen at Week(rad): 0.9302836978 Argument of Perigee(rad): 0.9721123878 Mean Anom(rad): -2.320586737 Af0(s): 0.000192940625 Af1(s/s): 7.275958e-12 week: 144 ******** Week 144 almanac for PRN-14 ******** ID: 14 Health: 0 Eccentricity: 0.001322746277 Time of Applicability(s): 319488 Orbital Inclination(rad): 0.9544680131 Rate of Right Ascen(r/s): -7.874613723e-09 SQRT(A) (m 1/2): 5153.599121 Right Ascen at Week(rad): 2.931779961 Argument of Perigee(rad): 3.044431675 Mean Anom(rad): 0.990796169 Af0(s): -5.50182251e-05 Af1(s/s): -3.637979e-12 week: 144 ******** Week 144 almanac for PRN-15 ******** ID: 15 Health: 0 Eccentricity: 0.01391744614 Time of Applicability(s): 319488 Orbital Inclination(rad): 0.9298524151 Rate of Right Ascen(r/s): -8.206056101e-09 SQRT(A) (m 1/2): 5153.657715 Right Ascen at Week(rad): 0.6728030001 Argument of Perigee(rad): 1.069967329 Mean Anom(rad): -2.715996876 Af0(s): -7.310640869e-05 Af1(s/s): 3.637979e-12 week: 144 ******** Week 144 almanac for PRN-16 ******** ID: 16 Health: 0 Eccentricity: 0.0126247406 Time of Applicability(s): 319488 Orbital Inclination(rad): 0.9710421961 Rate of Right Ascen(r/s): -7.737465153e-09 SQRT(A) (m 1/2): 5153.544434 Right Ascen at Week(rad): 2.981151971 Argument of Perigee(rad): 0.6964823305 Mean Anom(rad): -0.9023151384 Af0(s): -0.0003595026489 Af1(s/s): -3.637979e-12 week: 144 ******** Week 144 almanac for PRN-17 ******** ID: 17 Health: 0 Eccentricity: 0.01373243332 Time of Applicability(s): 319488 Orbital Inclination(rad): 0.9802161203 Rate of Right Ascen(r/s): -7.943188008e-09 SQRT(A) (m 1/2): 5153.691406 Right Ascen at Week(rad): -2.283700791 Argument of Perigee(rad): -1.509788009 Mean Anom(rad): -1.797133021 Af0(s): 0.000443160498 Af1(s/s): 3.637979e-12 week: 144 ******** Week 144 almanac for PRN-18 ******** ID: 18 Health: 0 Eccentricity: 0.002090454102 Time of Applicability(s): 319488 Orbital Inclination(rad): 0.9702272688 Rate of Right Ascen(r/s): -7.851755628e-09 SQRT(A) (m 1/2): 5153.583496 Right Ascen at Week(rad): -1.277252101 Argument of Perigee(rad): 3.107936457 Mean Anom(rad): 2.469314339 Af0(s): 0.000207260437 Af1(s/s): -7.275958e-12 week: 144 ******** Week 144 almanac for PRN-19 ******** ID: 19 Health: 0 Eccentricity: 0.008926391602 Time of Applicability(s): 319488 Orbital Inclination(rad): 0.9789098398 Rate of Right Ascen(r/s): -7.966046103e-09 SQRT(A) (m 1/2): 5153.630371 Right Ascen at Week(rad): -2.238777924 Argument of Perigee(rad): 1.995505274 Mean Anom(rad): 0.5991797869 Af0(s): 8.29041748e-05 Af1(s/s): 3.637979e-12 week: 144 ******** Week 144 almanac for PRN-20 ******** ID: 20 Health: 0 Eccentricity: 0.005308151245 Time of Applicability(s): 319488 Orbital Inclination(rad): 0.9416269161 Rate of Right Ascen(r/s): -7.920329913e-09 SQRT(A) (m 1/2): 5153.672363 Right Ascen at Week(rad): -0.4034627884 Argument of Perigee(rad): 3.09819478 Mean Anom(rad): -2.937023808 Af0(s): 0.0004084914795 Af1(s/s): 0 week: 144 ******** Week 144 almanac for PRN-21 ******** ID: 21 Health: 0 Eccentricity: 0.02450227737 Time of Applicability(s): 319488 Orbital Inclination(rad): 0.9590160264 Rate of Right Ascen(r/s): -7.943188008e-09 SQRT(A) (m 1/2): 5153.547852 Right Ascen at Week(rad): -1.375589033 Argument of Perigee(rad): -1.027797463 Mean Anom(rad): -1.64055725 Af0(s): 0.0001236025879 Af1(s/s): 0 week: 144 ******** Week 144 almanac for PRN-22 ******** ID: 22 Health: 255 Eccentricity: 0.006880283356 Time of Applicability(s): 319488 Orbital Inclination(rad): 0.9383672069 Rate of Right Ascen(r/s): -7.931758961e-09 SQRT(A) (m 1/2): 5153.582031 Right Ascen at Week(rad): -0.3576729375 Argument of Perigee(rad): -0.8572978956 Mean Anom(rad): -2.905291079 Af0(s): -0.0003308630249 Af1(s/s): 7.275958e-12 week: 144 ******** Week 144 almanac for PRN-23 ******** ID: 23 Health: 0 Eccentricity: 0.001955986023 Time of Applicability(s): 319488 Orbital Inclination(rad): 0.9673630391 Rate of Right Ascen(r/s): -7.680319916e-09 SQRT(A) (m 1/2): 5153.651367 Right Ascen at Week(rad): -0.2776400365 Argument of Perigee(rad): 2.90728046 Mean Anom(rad): 1.629520902 Af0(s): 9.044091797e-06 Af1(s/s): -3.637979e-12 week: 144 ******** Week 144 almanac for PRN-24 ******** ID: 24 Health: 0 Eccentricity: 0.01227378845 Time of Applicability(s): 319488 Orbital Inclination(rad): 0.9340828465 Rate of Right Ascen(r/s): -8.046049436e-09 SQRT(A) (m 1/2): 5153.638672 Right Ascen at Week(rad): 1.768027832 Argument of Perigee(rad): 0.8006656918 Mean Anom(rad): 2.586764986 Af0(s): 0.0002193192261 Af1(s/s): 0 week: 144 ******** Week 144 almanac for PRN-25 ******** ID: 25 Health: 0 Eccentricity: 0.01034927368 Time of Applicability(s): 319488 Orbital Inclination(rad): 0.9584527679 Rate of Right Ascen(r/s): -7.817468486e-09 SQRT(A) (m 1/2): 5153.680664 Right Ascen at Week(rad): 2.88624852 Argument of Perigee(rad): 0.9714734788 Mean Anom(rad): 0.7248658437 Af0(s): 0.0002132898315 Af1(s/s): 7.275958e-12 week: 144 ******** Week 144 almanac for PRN-26 ******** ID: 26 Health: 0 Eccentricity: 0.006761074066 Time of Applicability(s): 319488 Orbital Inclination(rad): 0.9392899923 Rate of Right Ascen(r/s): -8.000333246e-09 SQRT(A) (m 1/2): 5153.633301 Right Ascen at Week(rad): 2.839911889 Argument of Perigee(rad): 0.3474309193 Mean Anom(rad): 0.07683386196 Af0(s): 0.0001371687256 Af1(s/s): 3.637979e-12 week: 144 ******** Week 144 almanac for PRN-27 ******** ID: 27 Health: 0 Eccentricity: 0.01000118256 Time of Applicability(s): 319488 Orbital Inclination(rad): 0.973858489 Rate of Right Ascen(r/s): -8.011762293e-09 SQRT(A) (m 1/2): 5153.600586 Right Ascen at Week(rad): -2.345946481 Argument of Perigee(rad): 0.6292770443 Mean Anom(rad): -1.775722454 Af0(s): 5.04961792e-05 Af1(s/s): 2.182787e-11 week: 144 ******** Week 144 almanac for PRN-29 ******** ID: 29 Health: 0 Eccentricity: 0.001760959625 Time of Applicability(s): 319488 Orbital Inclination(rad): 0.9821995095 Rate of Right Ascen(r/s): -7.943188008e-09 SQRT(A) (m 1/2): 5153.71875 Right Ascen at Week(rad): -2.270760075 Argument of Perigee(rad): 2.296587578 Mean Anom(rad): -1.672390722 Af0(s): -0.0003685467407 Af1(s/s): -3.637979e-12 week: 144 ******** Week 144 almanac for PRN-30 ******** ID: 30 Health: 0 Eccentricity: 0.005415439606 Time of Applicability(s): 319488 Orbital Inclination(rad): 0.9358085749 Rate of Right Ascen(r/s): -7.988904198e-09 SQRT(A) (m 1/2): 5153.534668 Right Ascen at Week(rad): 1.863888149 Argument of Perigee(rad): -2.753080187 Mean Anom(rad): 1.632067175 Af0(s): -0.000400201062 Af1(s/s): -3.637979e-12 week: 144 ******** Week 144 almanac for PRN-31 ******** ID: 31 Health: 0 Eccentricity: 0.01046228409 Time of Applicability(s): 319488 Orbital Inclination(rad): 0.9548754767 Rate of Right Ascen(r/s): -7.783181343e-09 SQRT(A) (m 1/2): 5153.619141 Right Ascen at Week(rad): 1.86818749 Argument of Perigee(rad): 0.365716225 Mean Anom(rad): 1.168213256 Af0(s): -0.0001258636108 Af1(s/s): 0 week: 144 ******** Week 144 almanac for PRN-32 ******** ID: 32 Health: 0 Eccentricity: 0.005411148071 Time of Applicability(s): 319488 Orbital Inclination(rad): 0.9577996276 Rate of Right Ascen(r/s): -7.897471818e-09 SQRT(A) (m 1/2): 5153.702148 Right Ascen at Week(rad): 0.7890203957 Argument of Perigee(rad): -2.375704809 Mean Anom(rad): -1.090762956 Af0(s): -3.919106445e-05 Af1(s/s): -7.275958e-12 week: 144